Weather History for Windom, MN

Change the Weather History Date:

Thursday, November 24, 2011

  Actual Average Record
Temperature  
Mean Temperature 48 °F -  
Max Temperature 62 °F 34 °F 62 °F (2011)
Min Temperature 35 °F 17 °F -5 °F (1950)
Degree Days  
Heating Degree Days 16    
Moisture  
Dew Point 35 °F    
Average Humidity 66    
Maximum Humidity 93    
Minimum Humidity 39    
Precipitation  
Precipitation 0.00 in - - ()
Sea Level Pressure  
Sea Level Pressure 29.81 in    
Wind  
Wind Speed 15 mph (SSW)    
Max Wind Speed 22 mph    
Max Gust Speed 29 mph    
Visibility 10 miles    
Events      
Averages and records for this station are not official NWS values.
T = Trace of Precipitation, MM = Missing Value Source: NWS Daily Summary

Daily Weather History Graph

Daily Weather History Graph

Search for Another Location

Airport:

Trip Planner

Search our weather history database for the weather conditions in past years. The results will help you decide how hot, cold, wet, or windy it might be!

Date:

Astronomy

Nov. 24, 2011 Rise Set
Actual Time 7:26 AM CST 4:47 PM CST
Civil Twilight 6:54 AM CST 5:19 PM CST
Nautical Twilight 6:19 AM CST 5:54 PM CST
Astronomical Twilight 5:44 AM CST 6:29 PM CST
Moon 6:46 AM CST (11/24) 4:17 PM CST (11/24)
Length of Visible Light 10h 24m
Length of Day
9h 21m
Waning Crescent, 0% of the Moon is Illuminated
Nov 24
Waning Crescent
Nov 25
New
Dec 2
First Quarter
Dec 10
Full
Dec 17
Last Quarter

Hourly Weather History & Observations

Time (CST) Temp. Windchill Dew Point Humidity Pressure Visibility Wind Dir Wind Speed Gust Speed Precip Events Conditions
12:13 AM 35.6 °F 28.0 °F 33.8 °F 93% 29.96 in 5.0 mi South 10.4 mph - N/A   Clear
12:32 AM 35.6 °F 26.6 °F 33.8 °F 93% 29.95 in 7.0 mi South 13.8 mph - N/A   Clear
12:53 AM 35.6 °F 26.6 °F 33.8 °F 93% 29.94 in 7.0 mi South 13.8 mph - N/A   Clear
1:12 AM 35.6 °F 26.2 °F 33.8 °F 93% 29.93 in 7.0 mi South 15.0 mph - N/A   Clear
1:32 AM 35.6 °F 26.2 °F 33.8 °F 93% 29.92 in 7.0 mi South 15.0 mph - N/A   Clear
1:53 AM 35.6 °F 26.6 °F 33.8 °F 93% 29.93 in 7.0 mi South 13.8 mph - N/A   Clear
2:12 AM 35.6 °F 26.6 °F 33.8 °F 93% 29.92 in 7.0 mi South 13.8 mph - N/A   Clear
2:32 AM 35.6 °F 27.5 °F 32.0 °F 87% 29.91 in 7.0 mi South 11.5 mph - N/A   Clear
2:53 AM 35.6 °F 27.1 °F 32.0 °F 87% 29.91 in 10.0 mi South 12.7 mph - N/A   Clear
3:12 AM 37.4 °F 28.9 °F 32.0 °F 81% 29.90 in 10.0 mi South 13.8 mph - N/A   Clear
4:12 AM 39.2 °F 30.2 °F 33.8 °F 81% 29.88 in 10.0 mi South 17.3 mph - N/A   Clear
4:32 AM 39.2 °F 30.8 °F 32.0 °F 75% 29.87 in 10.0 mi South 15.0 mph - N/A   Clear
4:52 AM 37.4 °F 28.5 °F 32.0 °F 81% 29.86 in 10.0 mi South 15.0 mph - N/A   Clear
5:12 AM 39.2 °F 30.8 °F 32.0 °F 75% 29.85 in 10.0 mi South 15.0 mph - N/A   Clear
5:33 AM 41.0 °F 33.1 °F 32.0 °F 70% 29.86 in 10.0 mi South 15.0 mph - N/A   Clear
5:52 AM 41.0 °F 33.9 °F 33.8 °F 76% 29.85 in 10.0 mi South 12.7 mph - N/A   Clear
6:12 AM 39.2 °F 30.5 °F 33.8 °F 81% 29.85 in 10.0 mi South 16.1 mph - N/A   Clear
6:33 AM 41.0 °F 32.5 °F 33.8 °F 76% 29.84 in 10.0 mi South 17.3 mph 23.0 mph N/A   Clear
7:12 AM 39.2 °F 30.2 °F 33.8 °F 81% 29.84 in 10.0 mi South 17.3 mph 21.9 mph N/A   Clear
7:32 AM 39.2 °F 30.5 °F 33.8 °F 81% 29.84 in 10.0 mi South 16.1 mph - N/A   Clear
7:52 AM 39.2 °F 30.5 °F 33.8 °F 81% 29.84 in 10.0 mi South 16.1 mph 20.7 mph N/A   Clear
8:13 AM 41.0 °F 32.2 °F 33.8 °F 76% 29.84 in 10.0 mi South 18.4 mph - N/A   Clear
8:33 AM 41.0 °F 32.8 °F 33.8 °F 76% 29.84 in 10.0 mi South 16.1 mph - N/A   Clear
8:52 AM 42.8 °F 34.5 °F 35.6 °F 76% 29.84 in 10.0 mi SSW 18.4 mph 24.2 mph N/A   Clear
9:13 AM 44.6 °F 36.4 °F 35.6 °F 71% 29.83 in 10.0 mi South 20.7 mph - N/A   Clear
9:32 AM 46.4 °F 38.7 °F 35.6 °F 66% 29.82 in 10.0 mi South 20.7 mph 25.3 mph N/A   Clear
9:52 AM 46.4 °F 39.0 °F 35.6 °F 66% 29.82 in 10.0 mi South 19.6 mph 24.2 mph N/A   Clear
10:32 AM 46.4 °F 39.8 °F 37.4 °F 71% 29.82 in 10.0 mi South 16.1 mph - N/A   Clear
10:52 AM 48.2 °F - 37.4 °F 66% 29.81 in 10.0 mi SSW 17.3 mph - N/A   Clear
11:13 AM 51.8 °F - 37.4 °F 58% 29.80 in 10.0 mi SSW 18.4 mph 23.0 mph N/A   Clear
11:32 AM 53.6 °F - 37.4 °F 54% 29.78 in 10.0 mi SSW 20.7 mph - N/A   Clear
11:52 AM 55.4 °F - 37.4 °F 51% 29.77 in 10.0 mi SSW 21.9 mph 26.5 mph N/A   Clear
12:13 PM 57.2 °F - 37.4 °F 48% 29.76 in 10.0 mi SSW 20.7 mph 26.5 mph N/A   Clear
12:32 PM 57.2 °F - 39.2 °F 51% 29.75 in 10.0 mi South 18.4 mph 24.2 mph N/A   Clear
12:52 PM 60.8 °F - 37.4 °F 42% 29.74 in 10.0 mi South 20.7 mph 28.8 mph N/A   Clear
1:13 PM 60.8 °F - 37.4 °F 42% 29.73 in 10.0 mi SSW 21.9 mph 25.3 mph N/A   Clear
1:32 PM 60.8 °F - 37.4 °F 42% 29.73 in 10.0 mi SSW 19.6 mph 25.3 mph N/A   Clear
1:52 PM 62.6 °F - 37.4 °F 39% 29.72 in 10.0 mi South 18.4 mph - N/A   Clear
2:13 PM 62.6 °F - 37.4 °F 39% 29.72 in 10.0 mi South 19.6 mph 26.5 mph N/A   Clear
2:32 PM 62.6 °F - 37.4 °F 39% 29.71 in 10.0 mi SSW 18.4 mph 26.5 mph N/A   Clear
2:53 PM 62.6 °F - 37.4 °F 39% 29.71 in 10.0 mi SSW 21.9 mph 27.6 mph N/A   Clear
3:13 PM 60.8 °F - 37.4 °F 42% 29.71 in 10.0 mi SSW 19.6 mph 28.8 mph N/A   Clear
3:32 PM 60.8 °F - 37.4 °F 42% 29.71 in 10.0 mi South 20.7 mph 28.8 mph N/A   Clear
4:13 PM 60.8 °F - 37.4 °F 42% 29.71 in 10.0 mi SSW 16.1 mph - N/A   Clear
4:32 PM 59.0 °F - 35.6 °F 42% 29.71 in 10.0 mi SSW 17.3 mph - N/A   Clear
4:53 PM 57.2 °F - 35.6 °F 44% 29.72 in 10.0 mi SSW 15.0 mph - N/A   Clear
5:13 PM 55.4 °F - 37.4 °F 51% 29.72 in 10.0 mi South 16.1 mph 20.7 mph N/A   Clear
5:32 PM 55.4 °F - 37.4 °F 51% 29.72 in 10.0 mi SSW 13.8 mph 20.7 mph N/A   Clear
5:53 PM 55.4 °F - 37.4 °F 51% 29.71 in 10.0 mi South 13.8 mph - N/A   Clear
6:13 PM 53.6 °F - 37.4 °F 54% 29.71 in 10.0 mi South 13.8 mph - N/A   Clear
6:32 PM 53.6 °F - 37.4 °F 54% 29.71 in 10.0 mi South 15.0 mph - N/A   Clear
6:52 PM 53.6 °F - 37.4 °F 54% 29.71 in 10.0 mi South 15.0 mph - N/A   Clear
7:13 PM 53.6 °F - 37.4 °F 54% 29.71 in 10.0 mi South 15.0 mph - N/A   Clear
7:32 PM 51.8 °F - 37.4 °F 58% 29.71 in 10.0 mi South 12.7 mph - N/A   Clear
7:52 PM 51.8 °F - 37.4 °F 58% 29.70 in 10.0 mi SSW 12.7 mph 17.3 mph N/A   Clear
8:13 PM 51.8 °F - 37.4 °F 58% 29.70 in 10.0 mi South 15.0 mph - N/A   Clear
8:32 PM 51.8 °F - 37.4 °F 58% 29.69 in 10.0 mi South 13.8 mph - N/A   Clear
8:52 PM 51.8 °F - 37.4 °F 58% 29.70 in 10.0 mi SSW 11.5 mph - N/A   Clear
9:12 PM 50.0 °F - 37.4 °F 62% 29.70 in 10.0 mi SSW 10.4 mph - N/A   Clear
9:53 PM 46.4 °F 41.9 °F 35.6 °F 66% 29.70 in 10.0 mi SSW 9.2 mph - N/A   Clear
10:12 PM 46.4 °F 41.5 °F 35.6 °F 66% 29.69 in 10.0 mi SSW 10.4 mph - N/A   Clear
10:33 PM 46.4 °F 41.9 °F 35.6 °F 66% 29.69 in 10.0 mi SSW 9.2 mph - N/A   Clear
10:52 PM 44.6 °F 40.2 °F 35.6 °F 71% 29.68 in 10.0 mi SSW 8.1 mph - N/A   Clear
11:33 PM 46.4 °F 40.7 °F 35.6 °F 66% 29.66 in 10.0 mi South 12.7 mph - N/A   Clear
11:52 PM 46.4 °F 40.4 °F 35.6 °F 66% 29.66 in 10.0 mi South 13.8 mph - N/A   Clear